McCook, NE

4:52 PM CDT on April 29, 2017 (GMT -0500)
McCook Municipal

Weather History for KMCK - June, 2012

Change the Weather History Date:

Thursday, June 14, 2012

  Actual Average Record
Temperature  
Mean Temperature 79 °F 70 °F  
Max Temperature 93 °F 84 °F 103 °F (1952)
Min Temperature 65 °F 56 °F 41 °F (1969)
Cooling Degree Days 14    
Growing Degree Days 28 (Base 50)    
Moisture  
Dew Point 59 °F    
Average Humidity 55    
Maximum Humidity 75    
Minimum Humidity 32    
Precipitation  
Precipitation 0.05 in 0.11 in 1.39 in (1961)
Month to date precipitation 0.24 1.59  
Year to date precipitation 4.26 9.53  
Sea Level Pressure  
Sea Level Pressure 29.73 in    
Wind  
Wind Speed 16 mph (SE)    
Max Wind Speed 26 mph    
Max Gust Speed 37 mph    
Visibility 10 miles    
Events Rain , Thunderstorm    
T = Trace of Precipitation, MM = Missing Value Source: NWS Daily Summary

Daily Weather History Graph

Daily Weather History Graph

Search for Another Location

Airport or City:

Trip Planner

Search our weather history database for the weather conditions in past years. The results will help you decide how hot, cold, wet, or windy it might be!

Date:

Astronomy

Jun. 14, 2012 Rise Set
Actual Time 6:12 AM CDT 9:13 PM CDT
Civil Twilight 5:39 AM CDT 9:46 PM CDT
Nautical Twilight 4:57 AM CDT 10:28 PM CDT
Astronomical Twilight 4:08 AM CDT 11:17 PM CDT
Moon 2:55 AM CDT (6/14) 4:58 PM CDT (6/14)
Length of Visible Light 16h 07m
Length of Day
15h 01m
Waning Crescent, 21% of the Moon is Illuminated
Jun 14
Waning Crescent
Jun 19
New
Jun 26
First Quarter
Jul 3
Full
Jul 10
Last Quarter

Hourly Weather History & Observations

Time (CDT) Temp. Heat Index Dew Point Humidity Pressure Visibility Wind Dir Wind Speed Gust Speed Precip Events Conditions
12:53 AM 79.0 °F - 57.0 °F 47% 29.66 in 10.0 mi South 17.3 mph 25.3 mph N/A   Clear
1:53 AM 75.9 °F - 59.0 °F 56% 29.67 in 10.0 mi South 18.4 mph 29.9 mph N/A   Clear
2:53 AM 73.9 °F - 60.1 °F 62% 29.68 in 10.0 mi South 17.3 mph 25.3 mph N/A   Clear
3:53 AM 73.0 °F - 61.0 °F 66% 29.67 in 10.0 mi South 18.4 mph 27.6 mph N/A   Clear
4:53 AM 71.1 °F - 61.0 °F 70% 29.67 in 10.0 mi South 20.7 mph 27.6 mph N/A   Clear
5:53 AM 69.1 °F - 61.0 °F 75% 29.68 in 10.0 mi South 11.5 mph - N/A   Clear
6:53 AM 69.1 °F - 61.0 °F 75% 29.70 in 10.0 mi South 12.7 mph 20.7 mph N/A   Clear
7:51 AM 71.6 °F - 62.6 °F 73% 29.81 in 10.0 mi SSW 11.5 mph - N/A   Mostly Cloudy
7:53 AM 72.0 °F - 62.1 °F 71% 29.73 in 10.0 mi SW 13.8 mph 19.6 mph N/A   Mostly Cloudy
8:53 AM 77.0 °F - 64.0 °F 64% 29.72 in 10.0 mi SW 20.7 mph 26.5 mph N/A   Mostly Cloudy
9:15 AM 78.8 °F - 64.4 °F 61% 29.79 in 10.0 mi SSW 17.3 mph 32.2 mph N/A   Partly Cloudy
9:53 AM 81.0 °F 82.7 °F 64.9 °F 58% 29.70 in 10.0 mi SSW 19.6 mph 28.8 mph N/A   Partly Cloudy
10:53 AM 82.0 °F 83.8 °F 64.9 °F 56% 29.71 in 10.0 mi SSW 13.8 mph - N/A   Clear
11:53 AM 88.0 °F 89.6 °F 64.9 °F 46% 29.71 in 10.0 mi SW 6.9 mph - N/A   Scattered Clouds
12:53 PM 88.0 °F 89.3 °F 64.0 °F 45% 29.71 in 10.0 mi Variable 4.6 mph - N/A   Partly Cloudy
1:53 PM 88.0 °F 89.3 °F 64.0 °F 45% 29.72 in 10.0 mi Variable 4.6 mph - N/A   Clear
2:53 PM 91.9 °F 93.3 °F 64.0 °F 39% 29.71 in 10.0 mi North 15.0 mph 19.6 mph N/A   Clear
3:06 PM 93.2 °F 94.9 °F 64.4 °F 38% 29.81 in 10.0 mi North 18.4 mph 26.5 mph N/A   Scattered Clouds
3:53 PM 91.0 °F 93.0 °F 64.9 °F 42% 29.70 in 10.0 mi NNE 20.7 mph 25.3 mph N/A   Scattered Clouds
4:21 PM 87.8 °F 89.4 °F 64.4 °F 46% 29.78 in 10.0 mi NNE 18.4 mph - N/A Thunderstorm Clear
4:53 PM 84.0 °F 85.4 °F 64.0 °F 51% 29.70 in 10.0 mi NNE 20.7 mph - N/A Thunderstorm Thunderstorm
5:14 PM 75.2 °F - 66.2 °F 73% 29.82 in 8.0 mi East 26.5 mph 34.5 mph N/A Thunderstorm Thunderstorm
5:53 PM 64.9 °F - 57.0 °F 75% 29.71 in 10.0 mi East 25.3 mph 29.9 mph 0.03 in Thunderstorm Thunderstorm
6:19 PM 66.2 °F - 55.4 °F 68% 29.83 in 10.0 mi North 11.5 mph 21.9 mph 0.01 in Rain , Thunderstorm Light Rain
6:46 PM 71.6 °F - 53.6 °F 53% 29.77 in 10.0 mi East 21.9 mph 29.9 mph 0.02 in Rain Light Rain
6:53 PM 78.1 °F - 50.0 °F 37% 29.66 in 10.0 mi East 26.5 mph 36.8 mph 0.02 in   Overcast
7:06 PM 80.6 °F - 48.2 °F 32% 29.72 in 10.0 mi East 16.1 mph 31.1 mph N/A Thunderstorm Thunderstorm
7:21 PM 78.8 °F - 48.2 °F 34% 29.73 in 10.0 mi East 17.3 mph 25.3 mph N/A   Partly Cloudy
7:53 PM 78.1 °F - 48.9 °F 36% 29.62 in 10.0 mi ENE 25.3 mph 34.5 mph N/A   Clear
8:07 PM 78.8 °F - 48.2 °F 34% 29.67 in 10.0 mi ENE 23.0 mph 35.7 mph N/A   Clear
8:53 PM 73.0 °F - 51.1 °F 46% 29.66 in 10.0 mi West 10.4 mph - N/A   Clear
9:53 PM 73.0 °F - 61.0 °F 66% 29.78 in 10.0 mi Calm Calm - N/A   Clear
10:53 PM 73.0 °F - 61.0 °F 66% 29.84 in 10.0 mi NE 5.8 mph 17.3 mph N/A   Clear
11:53 PM 70.0 °F - 54.0 °F 57% 29.84 in 10.0 mi East 8.1 mph - N/A   Clear